www.pogodaiklimat.ru

Погода и климат >> Архив погоды >> Монголия >> Улан-Батор


АРХИВ ПОГОДЫ в Улан-Баторе

Время (UTC), дата Ветер
(напр.,м/с)
 
Видим.   Явления Облачность Т
(С)
Тd
(С)
f
(%)
Тe
(С)
Тes
(С)
Комфортность P
(гПа)
Po
(гПа)
Тmin
(С)
Tmax
(С)
R
(мм)
R24
(мм)
S
(см)
00 10.09 В 4 2000 м дым ясно +7.7 +2.2 68 +5 +5 по сезону 1023.8 873.4 +5.0
03 10.09 ЮВ 3 50 км 4/0
[Ci]
+15.2 +4.3 48 +15 +21 тепло 1018.9 872.8
06 10.09 Ю 3 50 км 6/0
[Ci]
+20.3 +1.7 29 +21 +28 комфорт 1014.1 871.1
09 10.09 Ю 3 50 км 6/0
[Ci]
+22.1 +2.8 28 +22 +24 комфорт 1011.7 869.8
12 10.09 В 4 н/о 3/0 2000 м
[Ac trans]
+19.5 +2.4 32 +20 +20 тепло 1013.4 870.1 +22.7
15 10.09 В 3 н/о ясно +16.0 +2.8 41 +16 +16 тепло 1016.0 870.7
18 10.09 З 3 н/о ясно +17.0 +0.2 32 +17 +17 тепло 1015.8 871.0
21 10.09 З 2 н/о ясно +15.3 +1.1 38 +15 +15 тепло 1016.2 870.6
00 11.09 штиль 0 50 км ясно +16.9 +2.2 37 +17 +19 тепло 1015.4 870.6 +14.6
03 11.09 ЮВ 4 50 км 4/0
[Ci]
+21.0 +2.3 29 +21 +27 комфорт 1012.2 869.7
06 11.09 ЮВ 5-13
{13}
50 км пыльная буря на расстоянии {метель} 6/0
[Cs]
+22.6 +1.6 25 +22 +27 комфорт 1007.9 866.8
09 11.09 Ю 5
{13}
50 км 5/4 1000 м
[Cu med, cong Ci]
+23.1 +6.0 33 +24 +24 комфорт 1004.3 863.9
12 11.09 Ю 3 н/о 8/3 600 м
[Cu med, cong Ci]
+20.6 +9.9 50 +23 +23 комфорт 1004.6 863.0 +23.6
15 11.09 Ю 4 н/о 4/0 2000 м
[Ac lent Ci]
+18.9 +9.1 53 +19 +19 тепло 1005.1 862.7
18 11.09 З 2 н/о 8/0 2000 м
[Ac As]
+17.3 +8.7 57 +18 +18 тепло 1006.1 862.8
21 11.09 С 4 н/о 8/0 2000 м
[Ac trans]
+13.0 +5.7 61 +11 +11 тепло 1009.9 864.1
00 12.09 штиль 0 10 км слаб. дождь 10/0 600 м
[As op]
+9.1 +6.9 86 +8 +9 тепло 1013.6 865.4 +9.1 2
03 12.09 ЮЗ 2 4000 м слаб. дождь 10/10 600 м
[Sc As op]
+9.4 +8.3 93 +8 +8 по сезону 1013.6 865.5
06 12.09 С 6 50 км {дождь} 9/9 600 м
[Sc]
+11.2 +5.1 66 +8 +9 холодно 1012.3 865.3
09 12.09 С 4 50 км 9/9 600 м
[Sc]
+9.4 +3.2 65 +7 +7 холодно 1015.1 866.8
12 12.09 С 1 н/о ясно +7.0 +2.7 74 +6 +6 прохладно 1017.9 868.0 +12.1 1
15 12.09 штиль 0 н/о 3/0
[Ci]
+4.8 +2.5 85 +4 +4 прохладно 1020.4 869.1
18 12.09 штиль 0 н/о ясно +3.1 +1.2 87 +2 +2 прохладно 1021.6 869.2
21 12.09 В 2 н/о 3/0 2000 м
[Ac trans]
+2.4 +0.3 86 -1 -1 холодно 1022.2 869.4
00 13.09 В 1 10 км дым 8/3 600 м
[Sc Ac cast Ci]
+4.9 +0.9 75 +4 +4 по сезону 1021.6 870.1 +2.3
03 13.09 З 2 50 км в посл. час ливневой дождь 9/8 600 м
[Cb calv Ac trans]
+9.1 +3.1 66 +8 +9 по сезону 1019.5 870.4
06 13.09 З 6 50 км {ливн. осадки} 8/8 1000 м
[Cb cap]
+13.3 +1.0 43 +11 +12 прохладно 1015.5 869.0
09 13.09 СЗ 3 50 км 8/8 1000 м
[Cb calv]
+13.4 -0.6 38 +13 +13 по сезону 1014.4 868.1
12 13.09 штиль 0 н/о ясно +10.3 -1.4 44 +10 +10 по сезону 1016.2 868.2 +14.5 0.0
15 13.09 штиль 0 н/о ясно +5.6 -0.4 65 +5 +5 прохладно 1019.1 868.4
18 13.09 В 2 н/о 8/4 600 м
[Sc Ac trans]
+5.2 -1.2 63 +3 +3 по сезону 1018.6 867.7
21 13.09 В 1 н/о 4/0 2000 м
[Ac lent Ci]
+4.3 -0.9 69 +3 +3 по сезону 1017.8 866.6
00 14.09 ЮВ 1 50 км 6/0
[Cs]
+6.1 -0.4 63 +5 +6 по сезону 1017.3 867.1 +2.8
03 14.09 ЮЗ 3 50 км 8/0 2000 м
[Ac und]
+11.8 -1.7 39 +11 +14 по сезону 1013.7 866.8
06 14.09 З 6 50 км 8/0
[Cs]
+13.9 -4.2 28 +12 +15 по сезону 1011.2 865.5
09 14.09 З 5 50 км 6/4 1000 м
[Cu med, cong Ci]
+15.0 -4.8 25 +14 +15 тепло 1009.5 864.7
12 14.09 штиль 0 н/о 3/0 2000 м
[Ac trans]
+10.5 -4.7 34 +10 +10 по сезону 1012.4 865.0 +15.8
15 14.09 С 5 н/о 5/0 2000 м
[Ac und]
+9.5 -1.2 47 +7 +7 по сезону 1015.4 867.1
18 14.09 С 3 н/о 8/8 600 м
[Sc]
+5.8 +0.2 67 +3 +3 по сезону 1020.3 869.5
21 14.09 штиль 0 н/о ясно +2.2 -0.9 80 +1 +1 прохладно 1024.3 871.1
00 15.09 ЮЗ 1 50 км ясно +2.8 -1.5 73 +1 +3 по сезону 1025.9 872.7 +0.7
03 15.09 ЮЗ 3 50 км 3/3 600 м
[Cu hum Ci fib]
+7.9 -2.4 48 +6 +11 прохладно 1023.3 873.1
06 15.09 З 5 50 км 8/3 1000 м
[Cu hum Ci]
+11.5 -6.4 28 +10 +13 прохладно 1019.6 871.7
09 15.09 З 4 50 км 3/3 1000 м
[Cu hum]
+12.9 -4.2 30 +12 +13 по сезону 1017.8 870.8
12 15.09 штиль 0 н/о ясно +8.2 -1.6 50 +8 +8 по сезону 1020.1 870.5 +13.4
15 15.09 В 1 н/о ясно +6.0 -1.4 59 +5 +5 по сезону 1022.0 871.0
18 15.09 В 2 н/о ясно +3.5 -2.0 67 +1 +1 прохладно 1023.0 870.6
21 15.09 штиль 0 н/о 3/0 2000 м
[Ac trans]
+1.9 -2.4 73 +1 +1 прохладно 1023.3 870.1
00 16.09 ЮВ 2 50 км 8/0 2000 м
[Ac und]
+4.5 -1.9 63 +2 +3 по сезону 1021.8 870.1 +1.1
03 16.09 ЮЗ 3 2000 м дым 6/3 1000 м
[Cu hum Ac trans Cs]
+12.1 -2.9 35 +11 +15 тепло 1017.5 870.2
06 16.09 З 6 50 км 6/4 1000 м
[Cu med, cong Ac cast Ci]
+17.3 -4.6 22 +17 +18 тепло 1012.4 868.2
09 16.09 З 6 50 км 8/6 1000 м
[Cu med, cong Ci]
+16.9 -5.5 21 +16 +16 тепло 1011.4 867.2
12 16.09 С 2 н/о 3/0 2000 м
[Ac lent Ci]
+11.9 -3.0 35 +11 +11 по сезону 1015.9 868.7 +18.1
15 16.09 СЗ 2 н/о 1/0 2000 м
[Ac lent]
+9.1 -1.3 48 +8 +8 по сезону 1020.4 871.2
18 16.09 СВ 2 н/о ясно +6.7 +0.8 66 +5 +5 по сезону 1024.6 873.6
21 16.09 З 2 н/о ясно +5.6 -5.7 44 +4 +4 по сезону 1027.5 875.5

 

Местоположение метеостанции Улан-Батор (Монголия): широта 47.92 долгота 106.85 высота над уровнем моря 1306 м.

В архиве по умолчанию представлена погода в Улан-Баторе за последнюю неделю. Архивные данные за месяц целиком и за предыдущие месяцы, начиная с января 2011 года, Вы можете получить, выбрав интересующий диапазон дат из раскрывающегося списка и нажав кнопку "Ввод!".


*Определитесь, кто Вы:
робот инопланетянин человек

Внимание! Время в таблицах - всемирное. Для получения местного времени необходимо прибавить поправку, которая равна 8 ч.

Смотрите также архив погоды в соседних городах и на ближайших метеорологических станциях:

Погода в Улан-Батор аэропорту (Монголия) (8 км)
Погода в Маанти (Монголия) (84 км)
Погода в Баруунхараа (Монголия) (126 км)
Погода в Хадатыне (Монголия) (172 км)
Погода в Чойре (Монголия) (193 км)
Погода в Мензе (Забайкальский край, Россия) (221 км)
Погода в Улыгайин Дуганг (Монголия) (222 км)
Погода в Мандалгоби (Монголия) (243 км)
Погода в Бат Олжий Вунд (Монголия) (253 км)
Погода в Булгане (Монголия) (263 км)

Пояснения к столбцам:

Ветер - указаны скорость ветра в м/с - средняя за 10 мин, порывы в срок и между сроками (в фигурных скобках) и направление, откуда дует ветер: С - северный, СВ - северо-восточный, В - восточный, ЮВ - юго-восточный, Ю - южный, ЮЗ - юго-западный, З - западный, СЗ - северо-западный.
Видимость - горизонтальная дальность видимости в метрах или километрах. При видимости от 1 до 10 км при отсутствии осадков обычно наблюдается дымка, при ухудшении видимости до 1 км и менее - туман. В сухую погоду видимость может ухудшаться дымом, пылью или мглою.
Явления - указаны атмосферные явления, наблюдавшиеся в срок или в последний час перед сроком; фигурными скобками обозначены явления, наблюдавшиеся между сроками (за 1-3 часа до срока); квадратными скобками обозначены град или гололедные отложения с указанием их диаметра в мм.
Облачность - указаны через наклонную черту общая и нижняя облачность в баллах и высота нижней границы облаков в метрах; квадратными скобками обозначены формы облаков: Ci - перистые, Cs - перисто-слоистые, Cc - перисто-кучевые, Ac - высококучевые, As - высокослоистые, Sc - слоисто-кучевые, Ns - слоисто-дождевые, Cu - кучевые, Cb - кучево-дождевые. Подробнее классификацию облаков см. в Атласе облаков (PDF).
T - Температура воздуха - температура, измеренная на высоте 2 м над землей.
Td - Температура точки росы - температура, при понижении до которой содержащийся в воздухе водяной пар достигнет насыщения.
f - Относительная влажность воздуха - влажноcть воздуха, измеренная на высоте 2 м над землей.
Te - Эффективная температура - температура, которую ощущает одетый по сезону человек в тени. Характеристика душности погоды. При расчете учитывается влияние влажности воздуха и скорости ветра на теплоощущения человека.
Tes - Эффективная температура на солнце - температура, которую ощущает человек, с поправкой на солнечный нагрев. Характеристика знойности погоды. Зависит от высоты солнца над горизонтом, облачности и скорости ветра. Ночью, в пасмурную погоду, а также при ветре 12 м/с и более поправка равна нулю.
P - Атмосферное давление - приведенное к уровню моря атмосферное давление.
Po - Атмосферное давление - измеренное на уровне метеостанции атмосферное давление.
Tmin - Минимальная температура - минимум температуры воздуха на высоте 2 м над землей.
Tmax - Максимальная температура - максимум температуры воздуха на высоте 2 м над землей.
R - Количество осадков - Количество выпавших осадков за период времени, мм. При наведении курсора мыши на число - период времени, за который выпало указанное количество осадков.
R24 - Количество осадков - Количество выпавших осадков за 24 часа, мм.
S - Снежный покров - Высота снежного покрова, см. При наведении курсора мыши на число - состояние снежного покрова и степень покрытия местности в баллах.